EDT,Max TemperatureF,Mean TemperatureF,Min TemperatureF,Max Dew PointF,MeanDew PointF,Min DewpointF,Max Humidity, Mean Humidity, Min Humidity, Max Sea Level PressureIn, Mean Sea Level PressureIn, Min Sea Level PressureIn, Max VisibilityMiles, Mean VisibilityMiles, Min VisibilityMiles, Max Wind SpeedMPH, Mean Wind SpeedMPH, Max Gust SpeedMPH,PrecipitationIn, CloudCover, Events, WindDirDegrees
2013-10-1,74,62,51,65,56,50,100,92,66,30.02,29.97,29.92,10,5,0,16,4,22,0.01,2,Fog,245
2013-10-2,77,66,53,61,53,43,99,68,30,30.09,30.04,29.95,12,11,6,10,7,,0.00,1,,302
2013-10-3,77,64,52,68,61,48,100,82,68,30.07,30.02,29.95,10,10,7,10,5,,0.00,4,,142
2013-10-4,80,72,64,68,66,64,100,88,64,30.04,29.98,29.94,10,8,5,10,6,,0.01,3,Rain-Thunderstorm,216
2013-10-5,73,66,60,70,65,61,100,97,83,30.06,30.00,29.90,10,8,2,15,4,,0.20,6,Rain,63
2013-10-6,72,65,56,69,66,54,100,96,80,29.87,29.75,29.64,10,10,3,18,10,26,0.33,6,Rain,198
2013-10-7,59,52,47,55,49,43,100,83,66,30.11,29.80,29.67,10,10,10,20,10,29,0.04,4,Rain,242
2013-10-8,65,54,42,50,45,42,99,75,44,30.31,30.25,30.13,10,10,10,9,5,,0.00,0,,175
2013-10-9,68,56,43,56,47,43,98,76,46,30.34,30.29,30.25,10,10,10,12,4,,0.00,0,,66
2013-10-10,68,55,42,54,46,42,100,81,40,30.25,30.20,30.12,10,9,1,8,4,,0.00,0,,344
2013-10-11,69,56,42,53,47,42,100,82,47,30.17,30.13,30.09,10,9,6,8,4,,0.00,0,,16
2013-10-12,73,60,46,63,52,45,100,87,40,30.12,30.09,30.06,10,10,6,10,3,,0.00,1,,51
2013-10-13,69,59,49,61,54,38,100,86,35,30.35,30.17,30.09,10,6,0,9,2,,0.00,1,Fog,307
2013-10-14,63,53,42,45,44,41,97,76,50,30.41,30.35,30.28,10,10,10,10,5,,0.00,0,,10
2013-10-15,64,52,40,63,55,39,100,93,77,30.28,29.99,29.83,10,10,6,14,7,,0.01,3,Rain,167
2013-10-16,64,58,53,63,57,44,100,89,52,29.90,29.82,29.80,10,10,7,15,11,23,0.04,5,Rain,226
2013-10-17,55,52,49,52,48,45,100,89,77,29.90,29.80,29.74,10,10,5,14,8,23,0.12,7,Rain,236
2013-10-18,63,54,44,45,42,39,97,72,44,29.92,29.87,29.81,10,10,10,16,8,24,0.00,1,,236
2013-10-19,49,46,42,45,41,37,97,85,71,29.89,29.79,29.72,10,10,7,12,7,24,0.17,5,Rain,241
2013-10-20,57,48,39,46,40,36,90,73,51,29.91,29.88,29.84,10,10,10,20,8,30,0.00,4,,217
2013-10-21,57,50,41,50,45,33,100,78,57,29.87,29.82,29.78,10,10,9,20,13,30,0.07,4,Rain,227
2013-10-22,49,41,34,36,30,26,77,61,47,29.91,29.88,29.82,10,10,10,14,9,23,0.00,5,,255
2013-10-23,48,40,34,34,30,24,90,65,45,29.91,29.86,29.81,10,7,3,14,8,,0.00,4,Rain,286
2013-10-24,49,40,31,32,29,26,93,67,43,30.15,30.02,29.92,10,5,3,17,10,22,0.00,1,,274
2013-10-25,50,41,32,35,30,26,100,77,48,30.32,30.23,30.12,10,8,5,15,9,20,0.00,3,,259
2013-10-26,51,44,37,40,31,26,91,62,48,30.07,29.87,29.76,10,10,9,22,16,32,0.02,5,Rain,247
2013-10-27,50,42,34,35,32,30,88,72,49,30.06,30.02,29.98,10,10,10,10,8,,0.00,3,,238
2013-10-28,49,42,35,40,34,30,83,70,62,30.40,30.26,30.05,10,10,10,13,7,,0.00,6,,6
2013-10-29,46,42,36,36,31,27,82,66,53,30.45,30.39,30.27,12,10,10,8,6,,0.00,7,,40
2013-10-30,59,44,29,50,40,28,95,82,56,30.25,30.14,29.98,12,10,7,12,4,,0.01,4,Rain,128
2013-10-31,62,56,51,63,57,52,100,99,94,29.96,29.57,29.16,10,6,2,21,11,38,0.70,8,Rain,177